Regional Weather Roundup
Issued by NWS

Home | Current Version | Previous Version | Graphics & Text | Print | Product List | Glossary On
Versions: 1 2 3 4 5 6 7 8 9 10 11 12 13 14 15 16 17 18 19 20 21 22 23 24 25 26 27 28 29 30 31 32 33 34 35 36 37 38 39 40 41 42 43 44 45 46 47 48 49 50
000
ASUS45 KCYS 290010
RWRWY

WYOMING REGIONAL WEATHER ROUNDUP
NATIONAL WEATHER SERVICE CHEYENNE WY
600 PM MDT TUE MAR 28 2017

NOTE:  "FAIR" INDICATES FEW OR NO CLOUDS BELOW 12,000 FEET
WITH NO SIGNIFICANT WEATHER AND/OR OBSTRUCTIONS TO VISIBILITY.

WYZ001-290100-
YELLOWSTONE NATIONAL PARK

CITY           SKY/WX    TMP DP  RH WIND       PRES   REMARKS
LK YELLOWSTONE   N/A     39  12  33 VRB6      30.14S WCI  35
6HR MIN TEMP:  30; 6HR MAX TEMP:  40;

W YELLOWSTONE  NOT AVBL

$$
WYZ002>013-054>058-071-098>099-290100-
NORTHERN WYOMING

CITY           SKY/WX    TMP DP  RH WIND       PRES   REMARKS
JACKSON        MOSUNNY   43  21  42 NW12      30.13S
CODY           FAIR      47  28  47 N6        30.09R
GREYBULL       FAIR      55  28  35 MISG      30.06R
6HR MIN TEMP:  47; 6HR MAX TEMP:  56;

WORLAND        FAIR      50  39  66 E7        30.08R
6HR MIN TEMP:  42; 6HR MAX TEMP:  50; 6HR PCP: TRACE;

SHERIDAN       CLOUDY    46  36  68 N5        30.11S
6HR MIN TEMP:  40; 6HR MAX TEMP:  48; 6HR PCP:  0.03;

BUFFALO        FAIR      42  33  70 N18G24    30.11R
6HR MIN TEMP:  41; 6HR MAX TEMP:  46;

GILLETTE       PTSUNNY   48  37  65 N14       30.06R
6HR MIN TEMP:  42; 6HR MAX TEMP:  50;

HULETT         CLOUDY    45  41  87 CALM      30.08R
NEWCASTLE      CLOUDY    43  41  93 S12G18    30.08R

$$
WYZ014>020-022>026-101>103-290100-
CENTRAL WYOMING

CITY           SKY/WX    TMP DP  RH WIND       PRES   REMARKS
BIG PINEY      FAIR      46  20  35 N21       30.10R
6HR MIN TEMP:  44; 6HR MAX TEMP:  48;

PINEDALE       FAIR      43  19  39 NW22G28   30.10R
DUBOIS         FAIR      43  27  52 SE5       30.08R
LANDER         FAIR      45  35  68 SW10      30.08S
6HR MIN TEMP:  37; 6HR MAX TEMP:  46; 6HR PCP:  0.03;

RIVERTON       FAIR      49  30  48 NE8       30.09R
6HR MIN TEMP:  41; 6HR MAX TEMP:  50;

CASPER         CLOUDY    42  34  73 NE13      30.09R
6HR MIN TEMP:  38; 6HR MAX TEMP:  43;

DOUGLAS        LGT RAIN  42  39  89 N12       30.07R
6HR MIN TEMP:  40; 6HR MAX TEMP:  43; 6HR PCP:  0.03;


$$
WYZ021-027>030-104>119-290100-
SOUTHERN WYOMING

CITY           SKY/WX    TMP DP  RH WIND       PRES   REMARKS
EVANSTON       FAIR      43  23  45 N22       30.14R
6HR MIN TEMP:  37; 6HR MAX TEMP:  44;

KEMMERER         N/A     39  27  60 W18G25    30.12R WCI  30
FORT BRIDGER   MOCLDY    46  28  49 NW17      30.16
ROCK SPRINGS   CLOUDY    41  32  70 NE6       30.11R
6HR MIN TEMP:  33; 6HR MAX TEMP:  43; 6HR PCP:  0.05;

DIXON            N/A     43  31  61 NE20G30   30.05R
RAWLINS        CLOUDY    39  30  70 N17       30.08R WCI  30
6HR MIN TEMP:  37; 6HR MAX TEMP:  42; 6HR PCP: TRACE;

SARATOGA       CLOUDY    37  36  93 N14G25    30.06R WCI  29
LARAMIE        MIX PCPN  35  35 100 N14       30.01R WCI  26
6HR MIN TEMP:  35; 6HR MAX TEMP:  38; 6HR PCP:  0.08;

CHEYENNE       RAIN      39  37  92 NE14      29.97R FOG     WCI  31
6HR MIN TEMP:  38; 6HR MAX TEMP:  42; 6HR PCP:  0.04;

TORRINGTON     LGT RAIN  43  40  89 E14       30.02R
6HR MIN TEMP:  42; 6HR MAX TEMP:  46; 6HR PCP:  0.15;

PINE BLUFFS    LGT RAIN  41  39  93 NE13      29.97R

$$



USA.gov is the U.S. government's official web portal to all federal, state and local government web resources and services.